Location: ??????
(38.0131°N, 23.7723°E)
Time: 05:54:37
(UTC+00:00)

NOSS 3-1 (C) - Pass Details

Date: 17 October 2021
Orbit: 717 x 1491 km, 63.4° (Epoch: 25 November)

Event Time Altitude Azimuth Distance (km) Brightness Sun altitude
Rises 17:57:11 0° 217° (SW) 3,134 6.5 -26.9°
Reaches altitude 10° 17:59:26 10° 219° (SW) 2,251 5.7 -27.3°
Maximum altitude 18:04:30 74° 304° (NW) 840 3.2 -28.3°
Enters shadow 18:05:04 67° 351° (N) 881 3.2 -28.4°
